Flag for Brazil Weather past 2 weeks in Boa Vista, Roraima, Brazil

Now
86 °F

Broken clouds.


Feels Like: 87 °F
Forecast: N/A
Wind: 13 mph from Northeast

Location: Boa Vista Aeropor-To

Current Time: Feb 27, 2015 at 6:49:05 PM

Latest Report: Feb 27, 2015 at 6:00 PM


Visibility: N/A

Pressure: 29.77 "Hg

Humidity: 49%

Dew point: 64 °F

Location of Boa VistaLocation

Historic Weather in Boa Vista — Graph

°F

Boa Vista temperature yesterday

Maximum temperature yesterday: 88 °F (at 4:00 PM)
Minimum temperature yesterday: 73 °F (at 6:00 AM)
Average temperature yesterday: 81 °F

Past Weeks' High & Low Weather Summary

 TemperatureHumidityPressure
High91 °F (Feb 12, 6:00 PM)94% (Feb 27, 1:00 AM)30.21 "Hg (Feb 27, 1:00 AM)
Low70 °F (Feb 27, 1:00 AM)34% (Feb 20, 3:00 PM)29.74 "Hg (Feb 18, 6:00 PM)
Average81 °F61%29.86 "Hg
* Reported Feb 12 5:00 PM — Feb 27 5:00 PM, Boa Vista, Weather by CustomWeather, © 2015

Note: Actual official high and low records may vary slightly from our data, if they occured in-between our weather recording intervals... More about our weather records

Advertising

Boa Vista weather history for previous 24 hours

 ConditionsComfort  
Time TempWeatherWind HumidityBarometerVisibility
5:00 PM
Fri, Feb 27
86 °FBroken clouds.10 mph49%29.80 "HgN/A
4:00 PM88 °FBroken clouds.16 mph46%29.80 "HgN/A
3:00 PM88 °FBroken clouds.13 mph46%29.83 "HgN/A
2:00 PM86 °FBroken clouds.18 mph52%29.86 "HgN/A
1:00 PM82 °FBroken clouds.17 mph58%29.92 "HgN/A
12:00 PM82 °FPartly sunny.20 mph62%29.92 "HgN/A
11:00 AM81 °FPartly sunny.20 mph66%29.95 "HgN/A
10:00 AM79 °FPartly sunny.18 mph70%29.98 "HgN/A
9:00 AM75 °FBroken clouds.10 mph83%29.98 "HgN/A
8:00 AM73 °FPartly sunny.8 mph89%29.95 "HgN/A
7:00 AM72 °FPartly sunny.7 mph94%29.89 "HgN/A
6:00 AM72 °FPassing clouds.3 mph94%29.89 "HgN/A
5:00 AM72 °FPartly cloudy.5 mph94%29.89 "HgN/A
4:00 AM72 °FPartly cloudy.7 mph94%29.86 "HgN/A
3:00 AM72 °FPartly cloudy.8 mph94%29.89 "HgN/A
2:00 AM72 °FPartly cloudy.8 mph88%29.89 "HgN/A
1:00 AM70 °FLight rain. Partly cloudy.10 mph94%29.92 "Hg4 mi
12:00 AM73 °FPassing clouds.18 mph83%29.92 "HgN/A
11:00 PM
Thu, Feb 26
79 °FPassing clouds.22 mph70%29.89 "HgN/A
10:00 PM82 °FPassing clouds.14 mph62%29.86 "HgN/A
9:00 PM82 °FPassing clouds.8 mph58%29.83 "HgN/A
8:00 PM82 °FPassing clouds.7 mph58%29.80 "HgN/A
7:00 PM86 °FPassing clouds.7 mph52%29.77 "HgN/A
6:00 PM86 °FScattered clouds.8 mph52%29.74 "HgN/A
Weather by CustomWeather, © 2015

See weather overviewHow to use our weather pages